User: anonymous   Login
Location: Newark
(33.6439°N, 114.9881°W)
Time: 12:39:45
(UTC+00:00)
Language:

Envisat - Orbit

View from above orbital plane
View from above orbital plane
View from above satellite
View from above satellite

Ground track
Ground track

The orbit data is extracted from the following two-line orbital elements,

1 27386U 02009A   19290.12061194 -.00000008  00000-0  10718-4 0  9992
2 27386  98.1452 304.9611 0001175  92.8146 341.1160 14.37959854923505
Epoch (UTC): 17 October 2019 02:53:40
Eccentricity: 0.0001175
inclination: 98.1452°
perigee height: 764 km
apogee height: 766 km
right ascension of ascending node: 304.9611°
argument of perigee: 92.8146°
revolutions per day: 14.37959854
mean anomaly at epoch: 341.1160°
orbit number at epoch: 92350

The dashed part of the orbit path shows where the satellite is in the earth's shadow,  

DLR